Location: Kelshall
(52.0000°N, 0.0500°W)
Time: 13:45:41
(UTC+00:00)

Cosmos 2026 Rocket - Pass Details

Date: 18 September 2020
Orbit: 940 x 1000 km, 82.9° (Epoch: 25 October)

Event Time Altitude Azimuth Distance (km) Brightness Sun altitude
Rises 19:54:35 0° 351° (N) 3,713 7.5 -16.8°
Reaches altitude 10° 19:57:10 10° 356° (N) 2,767 6.8 -17.2°
Maximum altitude 20:03:26 56° 74° (ENE) 1,175 4.2 -18.0°
Enters shadow 20:06:54 27° 142° (SE) 1,823 4.9 -18.5°
